Location: La Oliva
(42.2466°N, 2.9955°E)
Time: 07:34:04
(UTC+00:00)

Cosmos 2219 - Pass Details

Date: 22 April 2021
Orbit: 834 x 859 km, 71.1° (Epoch: 07 May)

Event Time Altitude Azimuth Distance (km) Brightness Sun altitude
Rises 19:05:17 0° 167° (SSE) 3,367 6.0 -5.7°
Reaches altitude 10° 19:08:07 10° 154° (SSE) 2,437 5.2 -6.1°
Maximum altitude 19:12:30 24° 102° (ESE) 1,655 4.2 -6.9°
Drops below altitude 10° 19:16:55 10° 50° (NE) 2,452 5.4 -7.6°
Sets 19:19:46 0° 37° (NE) 3,393 6.2 -8.1°
